CZ-6A DEB, 56652

Orbit data source: Space-Track

CZ-6A DEB, 56652 is space debris in SSO originally from a launch on Fri, 11 Nov 2022 UTC launched from the Taiyaun Space Center, China (TSC). Debris objects in space refer to the collection of defunct objects orbiting the Earth. Examples of debris include non-operational satellites, rocket bodies, and fragments generated from explosions, collisions, or faulty payload assembly.

Loading next visibility...
Identifier
56652, 2022-151AGC
Orbit
SSO
Country
Flag of CNCN / PRC
Related business
Manufacturer
SAST
Mission
Spacecraft
Bus & Motor
Unknown
Mass
Unknown
Launch date (UTC)
2022-11-11 (4 years ago)
Launch vehicle
Unknown
Launch site
Taiyaun Space Center, China (TSC)
Object type
Payload
Rocket body
Debris
Shape & HBR
Unknown shape, 0.1 m
Radar Cross Section
Medium (>0.1 m² and <1 m²)

Expand to show TLE details & history
Last TLE update: 1 day ago

TLE from 1 day ago
0 CZ-6A DEB
1 56652U 22151AGC 26234.97582216  .00003285  00000-0  13238-2 0  9999
2 56652  98.8133 252.3169 0077768 147.1855 213.4189 14.27048429181012
Epoch: 2026-08-22T23:25Z
TLE epoch observation values (Epoch: 2026-08-22T23:25:11.034Z)
Latitude
-0.00004°
Longitude
-70.25758°
Altitude
851.279 km
Speed
7.403 km/s
True Right ascension
16h 49m 16s
True Declination
0° 00' 00"
Sunlit
Object was in daylight at epoch
Visualization orbit readout
Latitude
Unknown
Longitude
Unknown
Altitude
Unknown
Speed
Unknown
Apparent Right ascension
Unknown
Apparent Declination
Unknown
Sunlit
N/A
Visualization observer readout
Local Sidereal Time
00:48:41
Azimuth
Unknown
Elevation
Unknown
Doppler factor
Unknown
Orbital elements
Apogee altitude
854.581 km
Perigee altitude
742.954 km
Semi-major axis
7,176.905 km
Eccentricity
0.00778
Inclination
98.8133°
RAAN
252.3169°
Arg. of periapsis
147.1855°
True anomaly
212.93205°
Mean anomaly
213.4189°
Eccentric anomaly
213.17508°
Mean motion
3.56975 °/min
Orbital period
100.85 mins
BSTAR
0.0013238
Loading maneuver chart data...
Computing Atmospheric mass density...
Loading historical data...
Loading historical data...
Loading historical data...
Loading historical data...
Loading historical data...
Loading historical data...
Loading historical data...

Documentation

Showing up to 5 results
|